Regional Weather Roundup
Issued by NWS Little Rock, AR

Home | Current Version | Previous Version | Text Only | Print | Product List | Glossary Off
Versions: 1 2 3 4 5 6 7 8 9 10 11 12 13 14 15 16 17 18 19 20 21 22 23 24 25 26 27 28 29 30 31 32 33 34 35 36 37 38 39 40 41 42 43 44 45 46 47

000
ASUS44 KLZK 260405
RWRLZK

WEATHER ROUNDUP FOR ARKANSAS
NATIONAL WEATHER SERVICE LITTLE ROCK AR
1000 PM CST THU DEC 25 2014

NOTE: "FAIR" INDICATES FEW OR NO CLOUDS BELOW 12,000 FEET WITH NO
SIGNIFICANT WEATHER AND/OR OBSTRUCTIONS TO VISIBILITY.

ARZ001-003-010-029-260500-
NORTHWEST ARKANSAS

CITY           SKY/WX    TMP DP  RH WIND       PRES   REMARKS
FAYETTEVILLE   PTCLDY    46  32  58 S13G21    29.94R
FORT SMITH     MOCLDY    49  32  52 E7        29.98R
HARRISON       PTCLDY    47  32  56 S12G23    29.96R
BENTONVILLE    MOCLDY    46  30  53 S10       29.94R
ROGERS         MOCLDY    47  32  56 S17       29.93R
SILOAM SPGS    MOCLDY    46  28  49 S12       29.94S
HIGHFILL       MOCLDY    46  32  58 S13       29.93R
$$

ARZ004-005-016-260500-
NORTH CENTRAL ARKANSAS

CITY           SKY/WX    TMP DP  RH WIND       PRES   REMARKS
BATESVILLE     PTCLDY    46  36  66 S10G18    30.06S
FLIPPIN        PTCLDY    48  30  49 S10G20    29.98S
MTN HOME       PTCLDY    45  32  60 S7        29.98F
$$

ARZ040-041-260500-
WEST CENTRAL ARKANSAS

CITY           SKY/WX    TMP DP  RH WIND       PRES   REMARKS
MENA           CLEAR     54  37  54 S8        30.01S
MOUNT IDA      CLEAR     52  35  52 S8        30.00S
$$

ARZ009-017-025-026-028-260500-
NORTHEAST ARKANSAS

CITY           SKY/WX    TMP DP  RH WIND       PRES   REMARKS
CORNING        FAIR      46  37  71 S17G25    30.10R
JONESBORO      CLEAR     42  37  82 S13       30.11R
NEWPORT        CLEAR     42  38  86 S10       30.11R
WALNUT RIDGE   MOCLDY    43  36  75 S15       30.08R
BLYTHEVILLE    CLEAR     41  35  79 S12       30.13S
$$

ARZ022-023-033-042-044-260500-
CENTRAL ARKANSAS

CITY           SKY/WX    TMP DP  RH WIND       PRES   REMARKS
LITTLE ROCK    PTCLDY    46  35  65 S10       30.09R
N LITTLE ROCK  PTCLDY    46  38  75 S9        30.09R
JACKSONVILLE   CLEAR     45  37  74 SE6       30.09R
SEARCY         CLEAR     42  37  82 S8        30.11R
HOT SPRINGS    CLEAR     49  36  61 S7G17     30.06S
RUSSELLVILLE   PTCLDY    45  34  65 SE6       30.02F
CLINTON        FAIR      45  36  70 SE7       30.06F
$$

ARZ036-260500-
EAST ARKANSAS

CITY           SKY/WX    TMP DP  RH WIND       PRES   REMARKS
WEST MEMPHIS   CLEAR     39  35  86 S9        30.13R
$$

ARZ050-053-066-070-073-260500-
SOUTHWEST ARKANSAS

CITY           SKY/WX    TMP DP  RH WIND       PRES   REMARKS
ARKADELPHIA    FAIR      43  38  82 S5        30.09R
CAMDEN         MOCLDY    46  36  66 MISG      30.10S
TEXARKANA      PTCLDY    48  39  71 S12       30.05R
EL DORADO      PTCLDY    46  37  71 SE6       30.11S
DE QUEEN       CLEAR     48  36  63 SE7       30.02R
$$

ARZ056-057-069-260500-
SOUTHEAST ARKANSAS

CITY           SKY/WX    TMP DP  RH WIND       PRES   REMARKS
PINE BLUFF     PTCLDY    46  35  65 S12       30.11S
STUTTGART      CLEAR     46  36  66 S12       30.12R
MONTICELLO     PTCLDY    43  36  76 S3        30.13S

$$





USA.gov is the U.S. government's official web portal to all federal, state and local government web resources and services.